EW8349 Weather Reports


Display with metric or nautical units.
time (UTC)temp
F
wind
direction
speed
MPH
gust
MPH
rain 1hr
in
rain 24hr
in
rain mn
in
humidity
%
barometer
mb
20220118124251 43 171 0.0 0.0 0.00 0.00 0.00 82 1001.4
20220118123749 43 171 0.0 1.0 0.00 0.00 0.00 82 1001.4
20220118123251 43 171 0.0 1.0 0.00 0.00 0.00 82 1001.4
20220118122749 43 171 0.0 0.0 0.00 0.00 0.00 81 1001.4
20220118122249 43 171 0.0 0.0 0.00 0.00 0.00 81 1001.5
20220118121749 43 173 0.0 0.0 0.00 0.00 0.00 81 1001.4
20220118121249 43 159 0.0 4.0 0.00 0.00 0.00 80 1001.5
20220118120749 43 154 0.0 4.0 0.00 0.00 0.00 80 1001.4
20220118120249 43 170 0.0 1.0 0.00 0.00 0.00 79 1001.5
20220118115749 43 170 0.0 1.0 0.00 0.00 0.00 78 1001.5
20220118115250 43 170 0.0 1.0 0.00 0.00 0.00 78 1001.5
20220118114747 43 170 0.0 1.0 0.00 0.00 0.00 78 1001.4
20220118114246 43 170 0.0 0.0 0.00 0.00 0.00 77 1001.5
20220118113747 43 170 0.0 0.0 0.00 0.00 0.00 77 1001.6
20220118113248 43 170 0.0 1.0 0.00 0.00 0.00 76 1001.6
20220118112746 43 170 0.0 1.0 0.00 0.00 0.00 76 1001.6
20220118112247 43 170 0.0 0.0 0.00 0.00 0.00 76 1001.3
20220118111747 43 170 0.0 0.0 0.00 0.00 0.00 76 1001.3
20220118111248 44 170 0.0 0.0 0.00 0.00 0.00 75 1001.4
20220118110747 44 170 0.0 0.0 0.00 0.00 0.00 75 1001.4
20220118110247 44 170 0.0 2.0 0.00 0.00 0.00 75 1001.1
20220118105745 44 169 0.0 2.0 0.00 0.00 0.00 75 1001.0
20220118105244 44 169 0.0 0.0 0.00 0.00 0.00 75 1001.1
20220118104745 44 169 0.0 1.0 0.00 0.00 0.00 75 1001.2
20220118104245 44 176 0.0 1.0 0.00 0.00 0.00 74 1001.2
20220118103745 44 164 0.0 1.0 0.00 0.00 0.00 74 1001.3
20220118103247 44 166 0.0 0.0 0.00 0.00 0.00 74 1001.4
20220118102745 44 159 0.0 0.0 0.00 0.00 0.00 74 1001.4
20220118102243 44 162 0.0 0.0 0.00 0.00 0.00 74 1001.4
20220118101743 44 171 0.0 5.0 0.00 0.00 0.00 75 1001.4
20220118101243 45 178 0.0 5.0 0.00 0.00 0.00 74 1001.6
20220118100743 45 156 0.0 4.0 0.00 0.00 0.00 74 1001.6
20220118100241 45 155 0.0 5.0 0.00 0.00 0.00 74 1001.7
20220118095740 44 165 0.0 5.0 0.00 0.00 0.00 74 1001.7
20220118095242 44 160 0.0 5.0 0.00 0.00 0.00 74 1001.7
20220118094741 44 147 0.0 5.0 0.00 0.00 0.00 74 1001.7
20220118094241 44 166 0.0 4.0 0.00 0.00 0.00 74 1001.6
20220118093740 44 157 0.0 4.0 0.00 0.00 0.00 73 1001.6
20220118093241 44 162 0.0 4.0 0.00 0.00 0.00 73 1001.7
20220118092741 44 166 0.0 0.0 0.00 0.00 0.00 73 1001.7
20220118092241 44 166 0.0 0.0 0.00 0.00 0.00 73 1001.8
20220118091742 44 166 0.0 1.0 0.00 0.00 0.00 72 1001.8
20220118091241 44 166 0.0 4.0 0.00 0.00 0.00 72 1001.7
20220118090739 44 167 0.0 4.0 0.00 0.00 0.00 72 1001.7
20220118090239 44 168 0.0 4.0 0.00 0.00 0.00 72 1001.8
20220118085739 44 170 0.0 2.0 0.00 0.00 0.00 72 1001.7
20220118085237 44 171 0.0 2.0 0.00 0.00 0.00 72 1001.7
20220118084737 44 165 0.0 0.0 0.00 0.00 0.00 72 1001.8
20220118084238 44 165 0.0 0.0 0.00 0.00 0.00 72 1001.7
20220118083738 44 161 0.0 0.0 0.00 0.00 0.00 72 1001.7
20220118083238 44 179 0.0 0.0 0.00 0.00 0.00 72 1001.8
20220118082737 44 169 0.0 0.0 0.00 0.00 0.00 71 1001.8
20220118082235 44 169 0.0 0.0 0.00 0.00 0.00 71 1001.8
20220118081735 44 174 0.0 0.0 0.00 0.00 0.00 71 1001.8
20220118081234 44 175 0.0 0.0 0.00 0.00 0.00 71 1001.8
20220118080735 44 176 0.0 0.0 0.00 0.00 0.00 72 1001.9
20220118080234 44 174 0.0 0.0 0.00 0.00 0.00 72 1002.0
20220118075732 44 174 0.0 0.0 0.00 0.00 0.00 72 1001.9
20220118075232 44 175 0.0 5.0 0.00 0.00 0.00 73 1002.1
20220118074731 44 167 0.0 5.0 0.00 0.00 0.00 73 1002.0
20220118074230 44 163 0.0 1.0 0.00 0.00 0.00 75 1002.1
20220118073731 43 170 0.0 1.0 0.00 0.00 0.00 76 1002.0
20220118073228 43 169 0.0 0.0 0.00 0.00 0.00 78 1002.1
20220118072728 42 169 0.0 1.0 0.00 0.00 0.00 80 1002.1
20220118072227 41 169 0.0 3.0 0.00 0.00 0.00 82 1002.1
20220118071728 40 201 0.0 3.0 0.00 0.00 0.00 85 1002.1
20220118071226 39 168 0.0 1.0 0.00 0.00 0.00 88 1002.1
20220118070726 38 168 0.0 1.0 0.00 0.00 0.00 89 1002.1
20220118070227 37 166 0.0 0.0 0.00 0.00 0.00 89 1002.1
20220118065727 37 166 0.0 1.0 0.00 0.00 0.00 89 1002.1
20220118065227 36 166 0.0 1.0 0.00 0.00 0.00 88 1002.2
20220118064731 36 166 0.0 0.0 0.00 0.00 0.00 88 1002.2
20220118064226 36 166 0.0 0.0 0.00 0.00 0.00 87 1002.2
20220118063727 36 166 0.0 0.0 0.00 0.00 0.00 87 1002.3
20220118063226 36 166 0.0 0.0 0.00 0.00 0.00 87 1002.2
20220118062727 36 166 0.0 0.0 0.00 0.00 0.00 87 1002.2
20220118062225 36 166 0.0 0.0 0.00 0.00 0.00 86 1002.3
20220118061722 36 166 0.0 0.0 0.00 0.00 0.00 86 1002.3
20220118061222 36 166 0.0 0.0 0.00 0.00 0.00 85 1002.4
20220118060722 36 166 0.0 0.0 0.00 0.00 0.00 85 1002.4
20220118060224 36 166 0.0 0.0 0.00 0.00 0.00 84 1002.4
20220118055721 37 166 0.0 0.0 0.00 0.00 0.00 84 1002.3
20220118055221 37 166 0.0 0.0 0.00 0.00 0.00 84 1002.3
20220118054721 37 166 0.0 0.0 0.00 0.00 0.00 84 1002.4
20220118054219 37 166 0.0 0.0 0.00 0.00 0.00 84 1002.5
20220118053719 37 166 0.0 0.0 0.00 0.00 0.00 84 1002.5
20220118053220 37 166 0.0 0.0 0.00 0.00 0.00 84 1002.6
20220118052718 37 166 0.0 0.0 0.00 0.00 0.00 83 1002.5
20220118052219 37 166 0.0 0.0 0.00 0.00 0.00 84 1002.5
20220118051717 37 166 0.0 0.0 0.00 0.00 0.00 83 1002.6
20220118051217 37 166 0.0 0.0 0.00 0.00 0.00 83 1002.6
20220118050715 37 166 0.0 0.0 0.00 0.00 0.00 83 1002.6
20220118050214 37 166 0.0 0.0 0.00 0.00 0.00 83 1002.6
20220118045716 37 166 0.0 0.0 0.00 0.00 0.00 83 1002.6
20220118045212 37 166 0.0 0.0 0.00 0.00 0.00 82 1002.7
20220118044713 38 166 0.0 0.0 0.00 0.00 0.00 82 1002.7
20220118044212 38 166 0.0 0.0 0.00 0.00 0.00 81 1002.7
20220118043710 38 166 0.0 0.0 0.00 0.00 0.00 81 1002.7
20220118043211 38 166 0.0 0.0 0.00 0.00 0.00 80 1002.7
20220118042708 38 166 0.0 0.0 0.00 0.00 0.00 80 1002.8
20220118042208 38 166 0.0 0.0 0.00 0.00 0.00 80 1002.9
20220118041708 38 166 0.0 0.0 0.00 0.00 0.00 80 1002.8
20220118041208 38 166 0.0 0.0 0.00 0.00 0.00 80 1002.8
20220118040708 39 166 0.0 0.0 0.00 0.00 0.00 79 1002.7
20220118040208 39 166 0.0 0.0 0.00 0.00 0.00 79 1002.7
20220118035708 39 166 0.0 0.0 0.00 0.00 0.00 79 1002.8
20220118035208 39 166 0.0 0.0 0.00 0.00 0.00 79 1002.7
20220118034710 39 166 0.0 0.0 0.00 0.00 0.00 79 1002.7
20220118034209 40 166 0.0 0.0 0.00 0.00 0.00 79 1002.8
20220118033708 40 166 0.0 0.0 0.00 0.00 0.00 78 1002.8
20220118033208 40 166 0.0 0.0 0.00 0.00 0.00 76 1002.9
20220118032713 40 166 0.0 0.0 0.00 0.00 0.00 75 1002.9
20220118032210 40 166 0.0 0.0 0.00 0.00 0.00 74 1002.9
20220118031708 40 166 0.0 0.0 0.00 0.00 0.00 74 1002.9
20220118031209 41 166 0.0 0.0 0.00 0.00 0.00 74 1002.9
20220118030709 41 166 0.0 0.0 0.00 0.00 0.00 74 1002.9
20220118030208 41 166 0.0 0.0 0.00 0.00 0.00 75 1002.9
20220118025708 41 166 0.0 0.0 0.00 0.00 0.00 74 1002.9
20220118025208 41 166 0.0 0.0 0.00 0.00 0.00 75 1002.9
20220118024710 42 166 0.0 0.0 0.00 0.00 0.00 74 1002.9
20220118024209 42 166 0.0 0.0 0.00 0.00 0.00 74 1002.9
20220118023706 42 166 0.0 0.0 0.00 0.00 0.00 72 1002.7
20220118023207 42 166 0.0 0.0 0.00 0.00 0.00 70 1002.6
20220118022705 43 166 0.0 0.0 0.00 0.00 0.00 71 1002.6
20220118022202 43 166 0.0 0.0 0.00 0.00 0.00 71 1002.6
20220118021702 43 166 0.0 0.0 0.00 0.00 0.00 70 1002.6
20220118021202 44 166 0.0 0.0 0.00 0.00 0.00 70 1002.6
20220118020658 44 166 0.0 0.0 0.00 0.00 0.00 70 1002.5
20220118020158 45 166 0.0 0.0 0.00 0.00 0.00 68 1002.6
20220118015658 45 166 0.0 0.0 0.00 0.00 0.00 67 1002.5
20220118015158 46 166 0.0 0.0 0.00 0.00 0.00 64 1002.5
20220118014658 46 166 0.0 0.0 0.00 0.00 0.00 64 1002.4
20220118014158 47 166 0.0 0.0 0.00 0.00 0.00 65 1002.5
20220118013658 47 166 0.0 0.0 0.00 0.00 0.00 65 1002.5
20220118013158 47 166 0.0 0.0 0.00 0.00 0.00 63 1002.5
20220118012700 48 166 0.0 0.0 0.00 0.00 0.00 61 1002.5
20220118012159 48 166 0.0 0.0 0.00 0.00 0.00 60 1002.5
20220118011703 49 166 0.0 0.0 0.00 0.00 0.00 59 1002.5
20220118011158 49 166 0.0 0.0 0.00 0.00 0.00 60 1002.4
20220118010656 50 166 0.0 0.0 0.00 0.00 0.00 59 1002.5
20220118010156 50 166 0.0 0.0 0.00 0.00 0.00 58 1002.4
20220118005656 51 166 0.0 0.0 0.00 0.00 0.00 57 1002.4
20220118005156 51 166 0.0 0.0 0.00 0.00 0.00 56 1002.5
20220118004657 52 166 0.0 0.0 0.00 0.00 0.00 55 1002.5
20220118004157 53 166 0.0 0.0 0.00 0.00 0.00 54 1002.4
20220118003656 54 166 0.0 0.0 0.00 0.00 0.00 52 1002.3
20220118003156 55 166 0.0 0.0 0.00 0.00 0.00 51 1002.4
20220118002657 55 166 0.0 0.0 0.00 0.00 0.00 50 1002.4
20220118002156 56 166 0.0 0.0 0.00 0.00 0.00 48 1002.4
20220118001656 57 166 0.0 0.0 0.00 0.00 0.00 44 1002.4
20220118001157 57 166 0.0 0.0 0.00 0.00 0.00 44 1002.4
20220118000657 58 166 0.0 0.0 0.00 0.00 0.00 44 1002.4
20220118000154 59 166 0.0 0.0 0.00 0.00 0.00 43 1002.4
20220117235654 59 166 0.0 0.0 0.00 0.00 0.00 42 1002.3
20220117235154 60 166 0.0 0.0 0.00 0.00 0.00 42 1002.3
20220117234654 60 166 0.0 0.0 0.00 0.00 0.00 41 1002.3
20220117234154 61 166 0.0 0.0 0.00 0.00 0.00 38 1002.4
20220117233655 61 166 0.0 0.0 0.00 0.00 0.00 37 1002.4
20220117233155 61 166 0.0 0.0 0.00 0.00 0.00 37 1002.4
20220117232654 61 166 0.0 0.0 0.00 0.00 0.00 37 1002.3
20220117232154 62 166 0.0 0.0 0.00 0.00 0.00 36 1002.2
20220117231653 62 165 0.0 0.0 0.00 0.00 0.00 35 1002.3
20220117231152 62 148 0.0 0.0 0.00 0.00 0.00 36 1002.5
20220117230652 63 148 1.0 6.0 0.00 0.00 0.00 35 1002.5
20220117230153 63 148 1.0 6.0 0.00 0.00 0.00 35 1002.6
20220117225652 63 131 0.0 4.0 0.00 0.00 0.00 34 1002.4
20220117225155 63 149 0.0 0.0 0.00 0.00 0.00 34 1002.4
20220117224654 63 150 0.0 0.0 0.00 0.00 0.00 34 1002.3
20220117224151 63 150 0.0 3.0 0.00 0.00 0.00 33 1002.3
20220117223650 63 148 0.0 3.0 0.00 0.00 0.00 33 1002.3
20220117223150 64 166 0.0 0.0 0.00 0.00 0.00 33 1002.2
20220117222650 64 131 0.0 0.0 0.00 0.00 0.00 32 1002.3
20220117222150 64 132 0.0 1.0 0.00 0.00 0.00 32 1002.3
20220117221650 65 137 0.0 1.0 0.00 0.00 0.00 32 1002.3
20220117221150 64 134 0.0 0.0 0.00 0.00 0.00 32 1002.3
20220117220650 64 140 0.0 1.0 0.00 0.00 0.00 32 1002.3
20220117220150 64 141 0.0 1.0 0.00 0.00 0.00 31 1002.4
20220117215647 64 152 1.0 7.0 0.00 0.00 0.00 32 1002.4
20220117215150 65 157 1.0 7.0 0.00 0.00 0.00 31 1002.3
20220117214648 65 136 0.0 2.0 0.00 0.00 0.00 31 1002.4
20220117214148 65 116 0.0 2.0 0.00 0.00 0.00 31 1002.4
20220117213648 65 44 0.0 2.0 0.00 0.00 0.00 32 1002.4
20220117213147 65 43 0.0 1.0 0.00 0.00 0.00 33 1002.5
20220117212648 65 42 0.0 3.0 0.00 0.00 0.00 33 1002.5
20220117212148 64 42 0.0 3.0 0.00 0.00 0.00 31 1002.6
20220117211649 65 42 0.0 3.0 0.00 0.00 0.00 31 1002.6
20220117211151 64 42 0.0 3.0 0.00 0.00 0.00 31 1002.6
20220117210646 64 58 0.0 0.0 0.00 0.00 0.00 31 1002.8
20220117210146 64 42 0.0 3.0 0.00 0.00 0.00 31 1002.9
20220117205645 64 40 1.0 5.0 0.00 0.00 0.00 31 1002.9
20220117205146 64 132 0.0 5.0 0.00 0.00 0.00 31 1002.9
20220117204646 65 151 0.0 3.0 0.00 0.00 0.00 32 1002.9
20220117204146 65 163 0.0 3.0 0.00 0.00 0.00 31 1003.1
20220117203646 64 109 0.0 0.0 0.00 0.00 0.00 31 1002.9
20220117203146 64 9 0.0 0.0 0.00 0.00 0.00 31 1003.0
20220117202647 65 5 0.0 0.0 0.00 0.00 0.00 31 1003.0
20220117202146 65 13 0.0 0.0 0.00 0.00 0.00 32 1003.1
20220117201644 63 13 0.0 0.0 0.00 0.00 0.00 31 1003.1
20220117201144 63 11 0.0 0.0 0.00 0.00 0.00 32 1003.2
20220117200644 63 0 0.0 0.0 0.00 0.00 0.00 31 1003.2
20220117200141 63 355 1.0 4.0 0.00 0.00 0.00 32 1003.2
20220117195642 63 44 1.0 4.0 0.00 0.00 0.00 31 1003.3
20220117195139 63 46 0.0 4.0 0.00 0.00 0.00 31 1003.5
20220117194640 63 108 0.0 1.0 0.00 0.00 0.00 31 1003.6
20220117194139 63 19 0.0 0.0 0.00 0.00 0.00 31 1003.8
20220117193636 62 18 0.0 0.0 0.00 0.00 0.00 32 1004.0
20220117193135 62 19 0.0 1.0 0.00 0.00 0.00 32 1003.7
20220117192636 62 21 0.0 1.0 0.00 0.00 0.00 31 1003.8
20220117192135 63 24 0.0 1.0 0.00 0.00 0.00 31 1004.0
20220117191636 62 28 0.0 0.0 0.00 0.00 0.00 31 1004.2
20220117191135 62 27 0.0 3.0 0.00 0.00 0.00 31 1004.5
20220117190637 62 27 0.0 3.0 0.00 0.00 0.00 32 1005.0
20220117190135 62 325 0.0 3.0 0.00 0.00 0.00 34 1005.3
20220117185635 61 280 0.0 2.0 0.00 0.00 0.00 35 1005.3
20220117185134 60 225 1.0 4.0 0.00 0.00 0.00 34 1004.7
20220117184634 60 216 1.0 4.0 0.00 0.00 0.00 35 1004.6
20220117184133 60 207 1.0 4.0 0.00 0.00 0.00 34 1005.0
20220117183634 60 169 1.0 4.0 0.00 0.00 0.00 34 1005.2
20220117183135 60 51 1.0 6.0 0.00 0.00 0.00 34 1005.3
20220117182634 60 61 1.0 6.0 0.00 0.00 0.00 35 1005.5
20220117182133 60 103 0.0 3.0 0.00 0.00 0.00 36 1005.6
20220117181634 60 32 0.0 0.0 0.00 0.00 0.00 35 1005.8
20220117181131 59 51 0.0 0.0 0.00 0.00 0.00 38 1005.9
20220117180631 59 55 0.0 1.0 0.00 0.00 0.00 38 1005.9
20220117180132 59 62 0.0 1.0 0.00 0.00 0.00 39 1006.0
20220117175629 58 129 0.0 1.0 0.00 0.00 0.00 39 1006.1
20220117175130 58 83 0.0 0.0 0.00 0.00 0.00 38 1006.2
20220117174629 58 69 0.0 0.0 0.00 0.00 0.00 38 1006.3
20220117174129 58 119 0.0 0.0 0.00 0.00 0.00 41 1006.3
20220117173630 57 126 0.0 0.0 0.00 0.00 0.00 43 1006.4
20220117173131 56 127 0.0 0.0 0.00 0.00 0.00 43 1006.4
20220117172629 57 117 0.0 1.0 0.00 0.00 0.00 43 1006.4
20220117172129 56 86 0.0 3.0 0.00 0.00 0.00 44 1006.5
20220117171629 56 101 0.0 3.0 0.00 0.00 0.00 44 1006.5
20220117171130 55 134 0.0 3.0 0.00 0.00 0.00 44 1006.5
20220117170629 55 53 0.0 1.0 0.00 0.00 0.00 46 1006.5
20220117170130 55 80 0.0 0.0 0.00 0.00 0.00 46 1006.5
20220117165629 55 88 0.0 0.0 0.00 0.00 0.00 49 1006.4
20220117165130 55 86 0.0 1.0 0.00 0.00 0.00 51 1006.5
20220117164630 53 61 0.0 5.0 0.00 0.00 0.00 49 1006.5
20220117164129 53 53 1.0 5.0 0.00 0.00 0.00 50 1006.5
20220117163629 52 48 0.0 4.0 0.00 0.00 0.00 51 1006.6
20220117163131 52 85 0.0 1.0 0.00 0.00 0.00 52 1006.7
20220117162629 51 110 0.0 1.0 0.00 0.00 0.00 56 1006.7
20220117162129 51 117 0.0 0.0 0.00 0.00 0.00 58 1006.8
20220117161630 50 126 0.0 2.0 0.00 0.00 0.00 60 1006.7
20220117161129 49 129 0.0 2.0 0.00 0.00 0.00 60 1006.7
20220117160627 49 118 0.0 3.0 0.00 0.00 0.00 58 1006.6
20220117160125 49 115 0.0 3.0 0.00 0.00 0.00 59 1006.7
20220117155625 49 71 0.0 1.0 0.00 0.00 0.00 59 1006.6
20220117155125 48 68 0.0 1.0 0.00 0.00 0.00 57 1006.6
20220117154625 48 46 0.0 1.0 0.00 0.00 0.00 59 1006.5
20220117154126 47 59 0.0 1.0 0.00 0.00 0.00 60 1006.5
20220117153625 46 62 0.0 1.0 0.00 0.00 0.00 61 1006.6
20220117153125 46 59 0.0 1.0 0.00 0.00 0.00 62 1006.5
20220117152625 45 32 0.0 0.0 0.00 0.00 0.00 63 1006.5
20220117152125 44 22 0.0 0.0 0.00 0.00 0.00 66 1006.5
20220117151625 44 302 0.0 0.0 0.00 0.00 0.00 72 1006.4
20220117151123 43 302 0.0 0.0 0.00 0.00 0.00 78 1006.3
20220117150619 42 302 0.0 0.0 0.00 0.00 0.00 85 1006.2
20220117150132 41 302 0.0 0.0 0.00 0.00 0.00 88 1006.2
20220117145619 40 302 0.0 0.0 0.00 0.00 0.00 90 1006.1
20220117145117 39 302 0.0 0.0 0.00 0.00 0.00 90 1006.1
20220117144620 37 302 0.0 0.0 0.00 0.00 0.00 92 1006.0
20220117144115 36 302 0.0 0.0 0.00 0.00 0.00 93 1006.0
20220117143615 35 302 0.0 0.0 0.00 0.00 0.00 94 1005.8
20220117143115 34 302 0.0 0.0 0.00 0.00 0.00 94 1005.7
20220117142615 32 302 0.0 0.0 0.00 0.00 0.00 94 1005.6
20220117142116 32 302 0.0 0.0 0.00 0.00 0.00 95 1005.7
20220117141617 31 302 0.0 0.0 0.00 0.00 0.00 95 1005.7
20220117141113 30 302 0.0 0.0 0.00 0.00 0.00 95 1005.6
20220117140613 29 302 0.0 0.0 0.00 0.00 0.00 95 1005.5
20220117140114 29 302 0.0 0.0 0.00 0.00 0.00 95 1005.4
20220117135613 29 302 0.0 0.0 0.00 0.00 0.00 94 1005.4
20220117135111 29 302 0.0 0.0 0.00 0.00 0.00 94 1005.3
20220117134611 29 302 0.0 0.0 0.00 0.00 0.00 94 1005.4
20220117134112 28 302 0.0 0.0 0.00 0.00 0.00 94 1005.3
20220117133611 28 302 0.0 0.0 0.00 0.00 0.00 94 1005.3
20220117133110 28 302 0.0 0.0 0.00 0.00 0.00 94 1005.3
20220117132609 28 302 0.0 0.0 0.00 0.00 0.00 94 1005.2
20220117132109 28 302 0.0 0.0 0.00 0.00 0.00 94 1005.2
20220117131609 28 302 0.0 0.0 0.00 0.00 0.00 94 1005.2
20220117131110 28 302 0.0 0.0 0.00 0.00 0.00 94 1005.1
20220117130610 28 302 0.0 0.0 0.00 0.00 0.00 94 1005.0
20220117130112 28 302 0.0 0.0 0.00 0.00 0.00 94 1004.9
20220117125610 28 302 0.0 0.0 0.00 0.00 0.00 94 1004.8
20220117125109 29 302 0.0 0.0 0.00 0.00 0.00 94 1004.7
20220117124609 29 302 0.0 0.0 0.00 0.00 0.00 94 1004.7